Regional Weather Roundup
Issued by NWS

Home | Current Version | Previous Version | Graphics & Text | Print | Product List | Glossary On
Versions: 1 2 3 4 5 6 7 8 9 10 11 12 13 14 15 16 17 18 19 20 21 22 23 24 25 26 27 28 29 30 31 32 33 34 35 36 37 38 39 40 41 42 43 44 45 46 47 48 49 50
000
ASUS45 KSLC 020210
RWRUT

UTAH REGIONAL WEATHER ROUNDUP
NATIONAL WEATHER SERVICE SALT LAKE CITY UT
800 PM MDT WED OCT 01 2014

UTZ001>011-023>025-020300-

NORTHERN UTAH

CITY           SKY/WX    TMP DP  RH WIND       PRES   REMARKS
HILL AFB       CLEAR     47  37  67 SE5       30.17R
LOGAN          NOT AVBL
OGDEN          CLEAR     49  37  63 SE6       30.15R
PROVO AIRPORT  PTCLDY    52  32  46 NW15      30.16R
SALT LAKE CITY PTCLDY    51  36  56 E5        30.16R
VERNAL         MOCLDY    49  26  41 N14G25    30.09R
WENDOVER       CLEAR     54  37  54 S9        30.16R
HEBER CITY     CLOUDY    45  32  61 NE8       30.16S
WEST JORDAN    CLEAR     48  36  61 NE3       30.18R

$$

UTZ012>022-026-027-020300-

SOUTHERN UTAH

CITY           SKY/WX    TMP DP  RH WIND       PRES   REMARKS
BRYCE CANYON   CLEAR     39  25  57 NW13      30.19R WCI  31
CEDAR CITY     CLEAR     48  26  42 N9        30.16R
MILFORD        CLEAR     49  30  48 NE8       30.16R
MOAB/CYNLANDS  CLEAR     53  31  42 W13       30.05R
PRICE          CLEAR     48  25  40 NW22G32   30.12R
ST GEORGE      PTCLDY    66  28  24 NE16G31   30.04R
KANAB            N/A     54  28  37 N8        30.12R

$$

REGIONAL REPORTS     COLORADO/ARIZONA

CITY           SKY/WX    TMP DP  RH WIND       PRES   REMARKS
CRAIG, CO      MOCLDY    39  35  86 CALM      30.12R
GRAND JUNCTION LGT RAIN  47  41  80 N17       30.09R
RIFLE          CLOUDY    42  38  85 SE7       30.10S
MONTROSE       PTCLDY    44  41  89 CALM      30.10R
CORTEZ         CLEAR     52  38  58 N9        30.04R
PAGE, AZ       CLEAR     65  24  21 W8        30.01R
GRAND CANYON   CLEAR     54  32  43 VRB5      30.11R
KINGMAN        CLEAR     67  34  29 NW5       29.99R
FLAGSTAFF      CLEAR     54  34  46 W3        30.12R

$$

REGIONAL REPORTS    NEVADA/IDAHO/WYOMING

CITY           SKY/WX    TMP DP  RH WIND       PRES   REMARKS
LAS VEGAS, NV  CLEAR     78  15   9 NE13      29.92R
ELY            CLEAR     44  20  38 N6        30.19R
ELKO           CLEAR     48  27  44 SW7       30.19R
POCATELLO, ID  CLEAR     48  33  56 SW12      30.14R
BURLEY         CLEAR     47  33  58 SW9       30.15R
EVANSTON, WY   PTCLDY    36  28  73 SW5       30.19R WCI  32
ROCK SPRINGS   CLOUDY    36  32  85 SW12      30.13R WCI  28

$$



USA.gov is the U.S. government's official web portal to all federal, state and local government web resources and services.